Location: Newark
(22.3060°N, 114.2134°E)
Time: 03:49:30
(UTC+00:00)

Vanguard 1 Rocket - Pass Details

Date: 10 August 2021
Orbit: 650 x 4226 km, 34.3° (Epoch: 24 September)

Event Time Altitude Azimuth Distance (km) Brightness Sun altitude
Exits shadow 21:22:09 - 224° (SW) 7,083 11.4 -8.9°
Reaches altitude 10° 21:25:33 10° 221° (SW) 6,560 11.2 -8.1°
Maximum altitude 21:49:34 68° 143° (SE) 4,415 11.0 -2.9°
Drops below altitude 10° 22:13:07 10° 66° (ENE) 6,491 14.0 2.3°
Sets 22:17:20 0° 64° (ENE) 7,166 14.2 3.3°
